When you browse on this site, cookies collect data to enhance your experience and personalize the content and advertising you see.
Visit our Privacy Policy to learn more. By continuing to use the site, you agree to this use of cookies and data.
  • In Romania
  • List of Countries
  • For 7 days
  • Water Temperature
  • Weather Map
  • Weather Widgets
  • user-avatar
    Login

    Hourly Weather Bodø

    Today, 28 May, Thursday

    Time Temperature Precipitation Wind Pressure Humidity
    00:00 +2°C° 0.3 mm 6 mps 767 mmHg 95%
    01:00 +2°C° 0 mm 6 mps 766 mmHg 95%
    02:00 +2°C° 0.3 mm 6 mps 766 mmHg 94%
    03:00 +2°C° 0.3 mm 6 mps 766 mmHg 93%
    04:00 +2°C° 0.3 mm 6 mps 766 mmHg 92%
    05:00 +2°C° 0.7 mm 6 mps 766 mmHg 93%
    06:00 +2°C° 0.7 mm 6 mps 766 mmHg 95%
    07:00 +3°C° 0.7 mm 7 mps 765 mmHg 97%
    08:00 +3°C° 0.8 mm 6 mps 766 mmHg 97%
    09:00 +3°C° 0.8 mm 6 mps 766 mmHg 97%
    10:00 +3°C° 0.8 mm 5 mps 766 mmHg 97%
    11:00 +3°C° 0.5 mm 5 mps 766 mmHg 97%
    12:00 +3°C° 0.5 mm 5 mps 767 mmHg 97%
    13:00 +3°C° 0.5 mm 5 mps 767 mmHg 97%
    14:00 +3°C° 0.3 mm 5 mps 767 mmHg 97%
    15:00 +3°C° 0.3 mm 5 mps 767 mmHg 97%
    16:00 +3°C° 0.3 mm 5 mps 767 mmHg 97%
    17:00 +3°C° 0.2 mm 5 mps 768 mmHg 96%
    18:00 +3°C° 0.2 mm 5 mps 768 mmHg 96%
    19:00 +3°C° 0.2 mm 5 mps 768 mmHg 96%
    20:00 +3°C° 0.3 mm 6 mps 768 mmHg 96%
    21:00 +3°C° 0.3 mm 6 mps 768 mmHg 96%
    22:00 +3°C° 0.3 mm 6 mps 768 mmHg 96%
    23:00 +3°C° 0.6 mm 7 mps 768 mmHg 97%

    Tomorrow, 29 May, Friday

    Time Temperature Precipitation Wind Pressure Humidity
    00:00 +4°C° 0.6 mm 7 mps 768 mmHg 97%
    01:00 +4°C° 0.6 mm 7 mps 768 mmHg 98%
    02:00 +4°C° 1.2 mm 7 mps 768 mmHg 98%
    03:00 +4°C° 1.2 mm 8 mps 767 mmHg 98%
    04:00 +4°C° 1.2 mm 8 mps 767 mmHg 98%
    05:00 +4°C° 1 mm 8 mps 768 mmHg 98%
    06:00 +4°C° 1 mm 8 mps 768 mmHg 97%
    07:00 +4°C° 1 mm 7 mps 768 mmHg 96%
    08:00 +4°C° 0.3 mm 7 mps 768 mmHg 96%
    09:00 +5°C° 0.3 mm 7 mps 769 mmHg 97%
    10:00 +5°C° 0.3 mm 7 mps 769 mmHg 97%
    11:00 +5°C° 0.3 mm 7 mps 770 mmHg 97%
    12:00 +5°C° 0.3 mm 6 mps 770 mmHg 97%
    13:00 +5°C° 0.3 mm 6 mps 771 mmHg 98%
    14:00 +5°C° 0.2 mm 6 mps 771 mmHg 98%
    15:00 +6°C° 0.2 mm 5 mps 771 mmHg 98%
    16:00 +6°C° 0.2 mm 5 mps 772 mmHg 98%
    17:00 +6°C° 0.1 mm 5 mps 772 mmHg 98%
    18:00 +6°C° 0.1 mm 5 mps 772 mmHg 98%
    19:00 +6°C° 0.1 mm 4 mps 772 mmHg 97%
    20:00 +6°C° 0.1 mm 4 mps 773 mmHg 96%
    21:00 +6°C° 0.1 mm 4 mps 773 mmHg 95%
    22:00 +6°C° 0.1 mm 4 mps 773 mmHg 94%
    23:00 +6°C° 0.1 mm 4 mps 774 mmHg 94%

    Day after tomorrow, 30 May, Saturday

    Time Temperature Precipitation Wind Pressure Humidity
    00:00 +6°C° 0.1 mm 4 mps 774 mmHg 93%
    01:00 +7°C° 0.1 mm 3 mps 774 mmHg 92%
    02:00 +7°C° 0.1 mm 3 mps 774 mmHg 92%
    03:00 +7°C° 0.1 mm 3 mps 774 mmHg 92%
    04:00 +7°C° 0.1 mm 3 mps 775 mmHg 92%
    05:00 +8°C° 0 mm 3 mps 775 mmHg 90%
    06:00 +8°C° 0 mm 3 mps 775 mmHg 89%
    07:00 +9°C° 0 mm 2 mps 775 mmHg 87%
    08:00 +10°C° 0 mm 2 mps 775 mmHg 86%
    09:00 +10°C° 0 mm 2 mps 775 mmHg 85%
    10:00 +12°C° 0 mm 2 mps 775 mmHg 84%
    11:00 +13°C° 0 mm 2 mps 775 mmHg 83%
    12:00 +13°C° 0 mm 2 mps 776 mmHg 81%
    13:00 +14°C° 0 mm 2 mps 776 mmHg 80%
    14:00 +14°C° 0 mm 1 mps 776 mmHg 79%
    15:00 +15°C° 0 mm 1 mps 776 mmHg 78%
    16:00 +15°C° 0 mm 1 mps 775 mmHg 78%
    17:00 +15°C° 0 mm 1 mps 775 mmHg 80%
    18:00 +14°C° 0 mm 1 mps 775 mmHg 81%
    19:00 +14°C° 0 mm 1 mps 775 mmHg 83%
    20:00 +13°C° 0 mm 1 mps 775 mmHg 83%
    21:00 +13°C° 0 mm 2 mps 775 mmHg 83%
    22:00 +13°C° 0 mm 2 mps 775 mmHg 83%
    23:00 +13°C° 0 mm 2 mps 775 mmHg 80%

    31 May, Sunday

    Time Temperature Precipitation Wind Pressure Humidity
    00:00 +13°C° 0 mm 2 mps 775 mmHg 78%
    01:00 +12°C° 0 mm 2 mps 775 mmHg 75%
    02:00 +13°C° 0 mm 2 mps 775 mmHg 73%
    03:00 +13°C° 0 mm 2 mps 775 mmHg 72%
    04:00 +14°C° 0 mm 2 mps 775 mmHg 70%
    05:00 +15°C° 0 mm 2 mps 774 mmHg 68%
    06:00 +16°C° 0 mm 1 mps 774 mmHg 66%
    07:00 +16°C° 0 mm 1 mps 774 mmHg 64%
    08:00 +18°C° 0 mm 1 mps 774 mmHg 61%
    09:00 +19°C° 0 mm 1 mps 774 mmHg 58%
    10:00 +20°C° 0 mm 1 mps 774 mmHg 56%
    11:00 +21°C° 0 mm 1 mps 774 mmHg 55%
    12:00 +21°C° 0 mm 1 mps 774 mmHg 54%
    13:00 +21°C° 0 mm 1 mps 774 mmHg 52%
    14:00 +21°C° 0 mm 1 mps 773 mmHg 53%
    15:00 +21°C° 0 mm 1 mps 773 mmHg 54%
    16:00 +21°C° 0 mm 1 mps 773 mmHg 54%
    17:00 +21°C° 0 mm 1 mps 773 mmHg 56%
    18:00 +20°C° 0 mm 1 mps 773 mmHg 58%
    19:00 +20°C° 0 mm 1 mps 772 mmHg 60%
    20:00 +19°C° 0 mm 1 mps 772 mmHg 63%
    21:00 +18°C° 0 mm 1 mps 772 mmHg 66%
    22:00 +16°C° 0 mm 1 mps 772 mmHg 70%
    23:00 +15°C° 0 mm 1 mps 772 mmHg 70%

    1 June, Monday

    Time Temperature Precipitation Wind Pressure Humidity
    00:00 +15°C° 0 mm 2 mps 772 mmHg 70%
    01:00 +14°C° 0 mm 2 mps 772 mmHg 70%
    02:00 +14°C° 0 mm 2 mps 771 mmHg 70%
    03:00 +15°C° 0 mm 1 mps 771 mmHg 71%
    04:00 +15°C° 0 mm 1 mps 771 mmHg 71%
    05:00 +16°C° 0 mm 1 mps 770 mmHg 68%
    06:00 +15°C° 0 mm 0 mps 770 mmHg 65%
    07:00 +16°C° 0 mm 0 mps 770 mmHg 61%
    08:00 +19°C° 0 mm 1 mps 770 mmHg 59%
    09:00 +20°C° 0 mm 1 mps 770 mmHg 57%
    10:00 +21°C° 0 mm 1 mps 769 mmHg 54%
    11:00 +21°C° 0 mm 1 mps 769 mmHg 54%
    12:00 +21°C° 0 mm 1 mps 769 mmHg 53%
    13:00 +21°C° 0 mm 1 mps 769 mmHg 53%
    14:00 +21°C° 0 mm 1 mps 769 mmHg 54%
    15:00 +20°C° 0 mm 2 mps 768 mmHg 55%
    16:00 +19°C° 0 mm 2 mps 768 mmHg 57%
    17:00 +19°C° 0 mm 2 mps 768 mmHg 60%
    18:00 +18°C° 0 mm 2 mps 768 mmHg 63%
    19:00 +17°C° 0 mm 2 mps 768 mmHg 66%
    20:00 +16°C° 0 mm 2 mps 768 mmHg 70%
    21:00 +15°C° 0 mm 2 mps 767 mmHg 73%
    22:00 +14°C° 0 mm 2 mps 767 mmHg 77%
    23:00 +14°C° 0 mm 2 mps 767 mmHg 78%

    2 June, Tuesday

    Time Temperature Precipitation Wind Pressure Humidity
    00:00 +13°C° 0 mm 2 mps 767 mmHg 79%
    01:00 +13°C° 0 mm 2 mps 767 mmHg 81%
    02:00 +13°C° 0 mm 2 mps 766 mmHg 79%
    03:00 +14°C° 0 mm 2 mps 766 mmHg 78%
    04:00 +14°C° 0 mm 2 mps 766 mmHg 77%
    05:00 +13°C° 0 mm 3 mps 766 mmHg 75%
    06:00 +14°C° 0 mm 3 mps 765 mmHg 74%
    07:00 +14°C° 0 mm 3 mps 765 mmHg 72%
    08:00 +14°C° 0 mm 4 mps 765 mmHg 69%
    09:00 +15°C° 0 mm 4 mps 765 mmHg 65%
    10:00 +15°C° 0 mm 4 mps 765 mmHg 62%
    11:00 +15°C° 0 mm 5 mps 765 mmHg 62%
    12:00 +15°C° 0 mm 5 mps 765 mmHg 62%
    13:00 +15°C° 0 mm 6 mps 764 mmHg 63%
    14:00 +14°C° 0 mm 5 mps 765 mmHg 67%
    15:00 +13°C° 0 mm 5 mps 765 mmHg 72%
    16:00 +12°C° 0 mm 5 mps 765 mmHg 77%
    17:00 +11°C° 0.2 mm 4 mps 764 mmHg 82%
    18:00 +10°C° 0.2 mm 3 mps 764 mmHg 88%
    19:00 +9°C° 0.2 mm 3 mps 764 mmHg 93%
    20:00 +9°C° 0.1 mm 2 mps 764 mmHg 93%
    21:00 +9°C° 0.1 mm 2 mps 764 mmHg 94%
    22:00 +9°C° 0.1 mm 2 mps 764 mmHg 94%
    23:00 +8°C° 0 mm 2 mps 763 mmHg 94%
    Show more